Weather History for Bangkok (Suvarnabhumi), Thailand

Change the Weather History Date:

Tuesday, September 24, 2013

  Actual Average (VTBD) Record (VTBD)
Temperature  
Mean Temperature 84 °F -  
Max Temperature 91 °F 90 °F 96 °F (2001)
Min Temperature 77 °F 75 °F 75 °F (1999)
Cooling Degree Days 19    
Growing Degree Days 34 (Base 50)    
Moisture  
Dew Point 75 °F    
Average Humidity 76    
Maximum Humidity 89    
Minimum Humidity 59    
Precipitation  
Precipitation 0.00 in 0.30 in - ()
Sea Level Pressure  
Sea Level Pressure 29.70 in    
Wind  
Wind Speed 7 mph ()    
Max Wind Speed 16 mph    
Max Gust Speed -    
Visibility 6.1 miles    
Events Rain , Thunderstorm    
Averages and records for this station are not official NWS values.
T = Trace of Precipitation, MM = Missing Value Source: Averaged Metar Reports

Daily Weather History Graph

Daily Weather History Graph

Search for Another Location

Airport:

Trip Planner

Search our weather history database for the weather conditions in past years. The results will help you decide how hot, cold, wet, or windy it might be!

Date:

Astronomy

Sep. 24, 2013 Rise Set
Actual Time 6:05 AM ICT 6:10 PM ICT
Civil Twilight 5:43 AM ICT 6:32 PM ICT
Nautical Twilight 5:19 AM ICT 6:56 PM ICT
Astronomical Twilight 4:54 AM ICT 7:21 PM ICT
Moon 9:52 PM ICT (9/24) 10:03 AM ICT (9/24)
Length of Visible Light 12h 48m
Length of Day
12h 05m
Waning Gibbous, 77% of the Moon is Illuminated
Sep 24
Waning Gibbous
Sep 27
Last Quarter
Oct 5
New
Oct 12
First Quarter
Oct 19
Full

Hourly Weather History & Observations

Time (ICT) Temp. Heat Index Dew Point Humidity Pressure Visibility Wind Dir Wind Speed Gust Speed Precip Events Conditions
12:00 AM 80.6 °F 86.2 °F 75.2 °F 84% 29.71 in 6.2 mi SSW 6.9 mph - N/A   Mostly Cloudy
12:30 AM 80.6 °F 85.4 °F 73.4 °F 79% 29.71 in 6.2 mi SSW 5.8 mph - N/A   Mostly Cloudy
1:00 AM 80 °F - 76 °F 86% 29.70 in 6 mi SSE 5.8 mph - -   Scattered Clouds
1:00 AM 80.6 °F 86.2 °F 75.2 °F 84% 29.68 in 6.2 mi SSW 5.8 mph - N/A   Mostly Cloudy
1:30 AM 80.6 °F 85.4 °F 73.4 °F 79% 29.68 in 6.2 mi SSW 5.8 mph - N/A   Mostly Cloudy
2:00 AM 78.8 °F - 73.4 °F 83% 29.68 in 6.2 mi SSW 3.5 mph - N/A   Mostly Cloudy
2:30 AM 78.8 °F - 73.4 °F 83% 29.68 in 6.2 mi SSW 3.5 mph - N/A   Mostly Cloudy
3:00 AM 78.8 °F - 73.4 °F 83% 29.68 in 6.2 mi SSW 3.5 mph - N/A   Mostly Cloudy
3:30 AM 78.8 °F - 73.4 °F 83% 29.65 in 6.2 mi South 3.5 mph - N/A   Scattered Clouds
4:00 AM 78.8 °F - 73.4 °F 83% 29.68 in 6.2 mi South 3.5 mph - N/A   Scattered Clouds
4:30 AM 78.8 °F - 73.4 °F 83% 29.68 in 6.2 mi SSW 2.3 mph - N/A   Scattered Clouds
5:00 AM 78.8 °F - 73.4 °F 83% 29.68 in 6.2 mi South 3.5 mph - N/A   Scattered Clouds
5:30 AM 78.8 °F - 75.2 °F 89% 29.68 in 6.2 mi SSW 3.5 mph - N/A   Scattered Clouds
6:00 AM 78.8 °F - 73.4 °F 83% 29.68 in 6.2 mi SSW 5.8 mph - N/A   Scattered Clouds
6:30 AM 78.8 °F - 73.4 °F 83% 29.68 in 6.2 mi South 6.9 mph - N/A   Mostly Cloudy
7:00 AM 80 °F - 76 °F 84% 29.70 in 6 mi Calm Calm - -   Scattered Clouds
7:00 AM 80.6 °F 86.2 °F 75.2 °F 84% 29.71 in 6.2 mi South 6.9 mph - N/A   Scattered Clouds
7:30 AM 82.4 °F 89.5 °F 75.2 °F 79% 29.71 in 6.2 mi SSW 9.2 mph - N/A   Scattered Clouds
8:00 AM 84.2 °F 92.3 °F 75.2 °F 74% 29.74 in 6.2 mi SSW 12.7 mph - N/A   Scattered Clouds
8:30 AM 86.0 °F 95.1 °F 75.2 °F 70% 29.74 in 6.2 mi WSW 5.8 mph - N/A   Mostly Cloudy
9:00 AM 86.0 °F 93.4 °F 73.4 °F 66% 29.74 in 6.2 mi WSW 11.5 mph - N/A   Mostly Cloudy
9:30 AM 86.0 °F 95.1 °F 75.2 °F 70% 29.74 in 6.2 mi WSW 11.5 mph - N/A   Mostly Cloudy
10:00 AM 87.8 °F 97.6 °F 75.2 °F 66% 29.74 in 6.2 mi SSW 10.4 mph - N/A   Mostly Cloudy
10:30 AM 87.8 °F 97.6 °F 75.2 °F 66% 29.74 in 6.2 mi SSW 11.5 mph - N/A   Mostly Cloudy
11:00 AM 87.8 °F 95.6 °F 73.4 °F 62% 29.74 in 6.2 mi SW 10.4 mph - N/A   Mostly Cloudy
11:30 AM 87.8 °F 97.6 °F 75.2 °F 66% 29.74 in 6.2 mi SSW 10.4 mph - N/A   Mostly Cloudy
12:00 PM 87.8 °F 95.6 °F 73.4 °F 62% 29.71 in 6.2 mi SSW 8.1 mph - N/A   Mostly Cloudy
12:30 PM 89.6 °F 98.2 °F 73.4 °F 59% 29.71 in 6.2 mi SW 6.9 mph - N/A   Mostly Cloudy
1:00 PM 89 °F - 77 °F 60% 29.70 in 7 mi WNW 2.3 mph - -   Scattered Clouds
1:00 PM 87.8 °F 97.6 °F 75.2 °F 66% 29.68 in 6.2 mi SSW 9.2 mph - N/A   Mostly Cloudy
1:30 PM 87.8 °F 97.6 °F 75.2 °F 66% 29.68 in 6.2 mi South 12.7 mph - N/A   Mostly Cloudy
2:00 PM 87.8 °F 97.6 °F 75.2 °F 66% 29.68 in 6.2 mi South 13.8 mph - N/A   Mostly Cloudy
2:30 PM 87.8 °F 97.6 °F 75.2 °F 66% 29.65 in 6.2 mi SSW 11.5 mph - N/A   Mostly Cloudy
3:00 PM 86.0 °F 95.1 °F 75.2 °F 70% 29.65 in 6.2 mi South 16.1 mph - N/A Rain Light Rain
3:30 PM 86.0 °F 93.4 °F 73.4 °F 66% 29.65 in 6.2 mi South 13.8 mph - N/A   Mostly Cloudy
4:00 PM 87.8 °F 95.6 °F 73.4 °F 62% 29.65 in 6.2 mi South 13.8 mph - N/A   Mostly Cloudy
4:30 PM 87.8 °F 97.6 °F 75.2 °F 66% 29.65 in 6.2 mi SSW 13.8 mph - N/A   Mostly Cloudy
5:00 PM 86.0 °F 93.4 °F 73.4 °F 66% 29.65 in 6.2 mi South 15.0 mph - N/A   Mostly Cloudy
5:30 PM 84.2 °F 92.3 °F 75.2 °F 74% 29.68 in 6.2 mi South 13.8 mph - N/A   Mostly Cloudy
6:00 PM 84.2 °F 92.3 °F 75.2 °F 74% 29.68 in 5.6 mi SSW 13.8 mph - N/A Rain , Thunderstorm Light Thunderstorms and Rain
6:30 PM 80.6 °F 86.2 °F 75.2 °F 84% 29.71 in 3.1 mi WNW 9.2 mph - N/A Rain , Thunderstorm Thunderstorms and Rain
7:00 PM 84 °F - 77 °F 75% 29.70 in 6 mi NNE 3.5 mph - -   Scattered Clouds
7:00 PM 80.6 °F 86.2 °F 75.2 °F 84% 29.71 in 5.0 mi West 4.6 mph - N/A Rain , Thunderstorm Light Thunderstorms and Rain
7:30 PM 80.6 °F 86.2 °F 75.2 °F 84% 29.71 in 5.6 mi SSW 9.2 mph - N/A Rain , Thunderstorm Thunderstorms and Rain
8:00 PM 80.6 °F 86.2 °F 75.2 °F 84% 29.71 in 6.2 mi SW 5.8 mph - N/A Rain Light Rain
8:30 PM 80.6 °F 86.2 °F 75.2 °F 84% 29.74 in 6.2 mi SSW 5.8 mph - N/A   Mostly Cloudy
9:00 PM 80.6 °F 87.1 °F 77.0 °F 89% 29.74 in 6.2 mi SSW 5.8 mph - N/A   Mostly Cloudy
9:30 PM 80.6 °F 86.2 °F 75.2 °F 84% 29.77 in 6.2 mi SSW 8.1 mph - N/A   Mostly Cloudy
10:00 PM 82.4 °F 90.9 °F 77.0 °F 84% 29.77 in 6.2 mi SSW 11.5 mph - N/A   Mostly Cloudy
10:30 PM 82.4 °F 89.5 °F 75.2 °F 79% 29.77 in 6.2 mi SSW 9.2 mph - N/A   Mostly Cloudy
11:00 PM 82.4 °F 89.5 °F 75.2 °F 79% 29.77 in 6.2 mi SSW 6.9 mph - N/A   Mostly Cloudy
11:30 PM 82.4 °F 89.5 °F 75.2 °F 79% 29.77 in 6.2 mi SW 6.9 mph - N/A   Mostly Cloudy